• In Uzbekistan
  • List of Countries
  • For 7 days
  • Water Temperature
  • Satellite Maps
  • Weather Map
  • Weather Widgets
  • user-avatar
    Login

    Hourly Weather Canillo

    Today, 28 March, Tuesday

    Time Temperature Precipitation Wind Pressure Humidity
    00:00 -2°C° 0 mm 1 mps 619 mmHg 89%
    01:00 -2°C° 0 mm 1 mps 619 mmHg 88%
    02:00 -2°C° 0 mm 1 mps 619 mmHg 87%
    03:00 -3°C° 0 mm 1 mps 619 mmHg 86%
    04:00 -3°C° 0 mm 1 mps 619 mmHg 85%
    05:00 -3°C° 0 mm 1 mps 619 mmHg 85%
    06:00 -3°C° 0 mm 1 mps 619 mmHg 84%
    07:00 0°C° 0 mm 1 mps 620 mmHg 78%
    08:00 +3°C° 0 mm 1 mps 622 mmHg 72%
    09:00 +5°C° 0 mm 0 mps 624 mmHg 65%
    10:00 +7°C° 0 mm 1 mps 624 mmHg 62%
    11:00 +9°C° 0 mm 1 mps 625 mmHg 60%
    12:00 +10°C° 0 mm 1 mps 625 mmHg 57%
    13:00 +9°C° 0 mm 1 mps 625 mmHg 59%
    14:00 +9°C° 0 mm 1 mps 625 mmHg 61%
    15:00 +9°C° 0 mm 1 mps 624 mmHg 63%
    16:00 +7°C° 0 mm 1 mps 624 mmHg 71%
    17:00 +5°C° 0 mm 1 mps 623 mmHg 79%
    18:00 +4°C° 0 mm 1 mps 622 mmHg 87%
    19:00 +3°C° 0 mm 1 mps 622 mmHg 89%
    20:00 +2°C° 0 mm 1 mps 622 mmHg 91%
    21:00 +1°C° 0 mm 1 mps 622 mmHg 93%
    22:00 0°C° 0 mm 1 mps 622 mmHg 93%
    23:00 0°C° 0 mm 1 mps 622 mmHg 93%

    Tomorrow, 29 March, Wednesday

    Time Temperature Precipitation Wind Pressure Humidity
    00:00 -1°C° 0 mm 1 mps 621 mmHg 93%
    01:00 -1°C° 0 mm 1 mps 621 mmHg 92%
    02:00 -1°C° 0 mm 1 mps 621 mmHg 91%
    03:00 -1°C° 0 mm 1 mps 621 mmHg 90%
    04:00 -1°C° 0 mm 1 mps 621 mmHg 89%
    05:00 -1°C° 0 mm 1 mps 621 mmHg 88%
    06:00 -2°C° 0 mm 1 mps 621 mmHg 86%
    07:00 +2°C° 0 mm 1 mps 622 mmHg 75%
    08:00 +4°C° 0 mm 0 mps 624 mmHg 64%
    09:00 +8°C° 0 mm 0 mps 626 mmHg 53%
    10:00 +10°C° 0 mm 1 mps 626 mmHg 50%
    11:00 +11°C° 0 mm 1 mps 626 mmHg 48%
    12:00 +12°C° 0 mm 1 mps 626 mmHg 45%
    13:00 +12°C° 0 mm 1 mps 626 mmHg 46%
    14:00 +12°C° 0 mm 1 mps 626 mmHg 47%
    15:00 +12°C° 0 mm 2 mps 625 mmHg 48%
    16:00 +10°C° 0 mm 1 mps 624 mmHg 59%
    17:00 +7°C° 0 mm 1 mps 623 mmHg 71%
    18:00 +4°C° 0 mm 1 mps 622 mmHg 82%
    19:00 +3°C° 0 mm 1 mps 622 mmHg 84%
    20:00 +2°C° 0 mm 1 mps 622 mmHg 86%
    21:00 +1°C° 0 mm 1 mps 621 mmHg 88%
    22:00 +1°C° 0 mm 1 mps 621 mmHg 88%
    23:00 +1°C° 0 mm 1 mps 621 mmHg 87%

    Day after tomorrow, 30 March, Thursday

    Time Temperature Precipitation Wind Pressure Humidity
    00:00 +1°C° 0 mm 1 mps 621 mmHg 87%
    01:00 +1°C° 0 mm 1 mps 621 mmHg 87%
    02:00 +1°C° 0 mm 1 mps 621 mmHg 87%
    03:00 +1°C° 0 mm 1 mps 621 mmHg 87%
    04:00 +1°C° 0 mm 1 mps 621 mmHg 87%
    05:00 +1°C° 0 mm 1 mps 621 mmHg 86%
    06:00 +1°C° 0 mm 1 mps 621 mmHg 86%
    07:00 +4°C° 0 mm 1 mps 622 mmHg 76%
    08:00 +6°C° 0 mm 2 mps 623 mmHg 65%
    09:00 +9°C° 0 mm 2 mps 625 mmHg 54%
    10:00 +10°C° 0 mm 2 mps 625 mmHg 51%
    11:00 +11°C° 0 mm 3 mps 625 mmHg 47%
    12:00 +12°C° 0 mm 3 mps 625 mmHg 43%
    13:00 +12°C° 0 mm 3 mps 625 mmHg 44%
    14:00 +12°C° 0 mm 3 mps 624 mmHg 45%
    15:00 +12°C° 0 mm 3 mps 624 mmHg 47%
    16:00 +9°C° 0 mm 3 mps 623 mmHg 57%
    17:00 +7°C° 0 mm 2 mps 622 mmHg 67%
    18:00 +5°C° 0 mm 2 mps 621 mmHg 76%
    19:00 +4°C° 0 mm 2 mps 621 mmHg 79%
    20:00 +2°C° 0 mm 2 mps 620 mmHg 82%
    21:00 +1°C° 0 mm 2 mps 620 mmHg 85%
    22:00 +1°C° 0 mm 2 mps 620 mmHg 83%
    23:00 +1°C° 0 mm 2 mps 619 mmHg 82%

    31 March, Friday

    Time Temperature Precipitation Wind Pressure Humidity
    00:00 +1°C° 0 mm 2 mps 619 mmHg 80%
    01:00 +1°C° 0 mm 2 mps 619 mmHg 79%
    02:00 -1°C° 0 mm 2 mps 619 mmHg 77%
    03:00 -1°C° 0 mm 2 mps 618 mmHg 75%
    04:00 +1°C° 0 mm 2 mps 619 mmHg 73%
    05:00 +1°C° 0 mm 2 mps 619 mmHg 71%
    06:00 +2°C° 0 mm 1 mps 619 mmHg 68%
    07:00 +4°C° 0 mm 1 mps 620 mmHg 62%
    08:00 +6°C° 0 mm 1 mps 621 mmHg 56%
    09:00 +8°C° 0 mm 1 mps 622 mmHg 50%
    10:00 +8°C° 0.1 mm 1 mps 622 mmHg 52%
    11:00 +8°C° 0.1 mm 2 mps 622 mmHg 55%
    12:00 +8°C° 0.1 mm 2 mps 623 mmHg 57%
    13:00 +8°C° 0.2 mm 2 mps 622 mmHg 61%
    14:00 +7°C° 0.2 mm 2 mps 621 mmHg 65%
    15:00 +7°C° 0.2 mm 2 mps 621 mmHg 70%
    16:00 +7°C° 0.2 mm 1 mps 620 mmHg 76%
    17:00 +6°C° 0.2 mm 1 mps 620 mmHg 83%
    18:00 +4°C° 0.2 mm 1 mps 619 mmHg 90%
    19:00 +4°C° 0.2 mm 1 mps 619 mmHg 92%
    20:00 +3°C° 0.2 mm 1 mps 619 mmHg 94%
    21:00 +1°C° 0.2 mm 0 mps 619 mmHg 97%
    22:00 +2°C° 0.1 mm 1 mps 619 mmHg 97%
    23:00 +2°C° 0.1 mm 1 mps 618 mmHg 97%

    1 April, Saturday

    Time Temperature Precipitation Wind Pressure Humidity
    00:00 +2°C° 0.1 mm 1 mps 618 mmHg 97%
    01:00 +2°C° 0.1 mm 1 mps 617 mmHg 96%
    02:00 +1°C° 0.1 mm 1 mps 617 mmHg 96%
    03:00 +1°C° 0.1 mm 1 mps 616 mmHg 96%
    04:00 +1°C° 0.1 mm 1 mps 616 mmHg 94%
    05:00 0°C° 0.1 mm 1 mps 616 mmHg 93%
    06:00 0°C° 0.1 mm 1 mps 616 mmHg 91%
    07:00 +2°C° 0.3 mm 1 mps 616 mmHg 87%
    08:00 +2°C° 0.3 mm 2 mps 617 mmHg 82%
    09:00 +4°C° 0.3 mm 2 mps 618 mmHg 77%
    10:00 +2°C° 1.2 mm 3 mps 618 mmHg 79%
    11:00 +2°C° 1.2 mm 3 mps 618 mmHg 80%
    12:00 0°C° 1.2 mm 4 mps 617 mmHg 82%
    13:00 0°C° 0.7 mm 4 mps 617 mmHg 81%
    14:00 0°C° 0.7 mm 4 mps 617 mmHg 81%
    15:00 0°C° 0.7 mm 4 mps 617 mmHg 80%
    16:00 0°C° 0.1 mm 3 mps 617 mmHg 82%
    17:00 0°C° 0.1 mm 3 mps 617 mmHg 84%
    18:00 -1°C° 0.1 mm 3 mps 617 mmHg 86%
    19:00 -2°C° 0 mm 3 mps 617 mmHg 86%
    20:00 -2°C° 0 mm 3 mps 617 mmHg 86%
    21:00 -4°C° 0 mm 3 mps 618 mmHg 86%
    22:00 -4°C° 0 mm 3 mps 618 mmHg 86%
    23:00 -4°C° 0 mm 3 mps 617 mmHg 86%

    2 April, Sunday

    Time Temperature Precipitation Wind Pressure Humidity
    00:00 -4°C° 0 mm 3 mps 617 mmHg 86%
    01:00 -4°C° 0 mm 3 mps 617 mmHg 86%
    02:00 -4°C° 0 mm 3 mps 617 mmHg 86%
    03:00 -4°C° 0 mm 3 mps 617 mmHg 86%
    04:00 -4°C° 0.1 mm 3 mps 617 mmHg 86%
    05:00 -4°C° 0.1 mm 3 mps 617 mmHg 87%
    06:00 -4°C° 0.1 mm 3 mps 618 mmHg 87%
    07:00 -2°C° 0 mm 3 mps 619 mmHg 81%
    08:00 0°C° 0 mm 3 mps 620 mmHg 76%
    09:00 +1°C° 0 mm 3 mps 621 mmHg 70%
    10:00 +2°C° 0 mm 3 mps 621 mmHg 67%
    11:00 +3°C° 0 mm 3 mps 621 mmHg 65%
    12:00 +4°C° 0 mm 3 mps 622 mmHg 62%
    13:00 +4°C° 0 mm 3 mps 622 mmHg 62%
    14:00 +5°C° 0 mm 3 mps 622 mmHg 61%
    15:00 +5°C° 0 mm 3 mps 621 mmHg 61%
    16:00 +3°C° 0 mm 3 mps 621 mmHg 68%
    17:00 +3°C° 0 mm 2 mps 621 mmHg 76%
    18:00 +1°C° 0 mm 2 mps 620 mmHg 83%
    19:00 +1°C° 0 mm 2 mps 621 mmHg 84%
    20:00 -1°C° 0 mm 2 mps 621 mmHg 86%
    21:00 -2°C° 0 mm 2 mps 621 mmHg 87%
    22:00 -2°C° 0 mm 2 mps 621 mmHg 86%
    23:00 -2°C° 0 mm 2 mps 621 mmHg 84%
    Show more